Regional Weather Roundup
Issued by NWS Upton, NY

Current Version | Previous Version | Text Only | Print | Product List | Glossary On
Versions: 1 2 3 4 5 6 7 8 9 10 11 12 13 14 15 16 17 18 19 20 21 22 23 24 25 26 27 28 29 30 31 32 33 34 35 36 37 38 39 40 41 42 43 44 45 46 47 48 49 50
000 ASUS41 KOKX 251505 RWROKX Regional Weather Roundup National Weather Service New York NY 1100 AM EDT WED APR 25 2018 Note: "FAIR" indicates few or no clouds below 12,000 feet with no significant weather and/or obstructions to visibility. NYZ071-072-176-178-NJZ106-104-251600- New York City Metro Area CITY SKY/WX TMP DP RH WIND PRES REMARKS Central Park LGT RAIN 58 56 93 MISG 29.88F Bronx Bot Gard N/A 57 55 94 SE9 29.88S Bronx Lehman C N/A 57 55 94 E12G23 N/A LaGuardia Arpt LGT RAIN 61 56 83 SE20G30 29.84F Queens College N/A 57 55 94 SE14G26 N/A Kennedy Intl FOG 55 55 100 E20 29.86F VSB 1/2 Breezy Point N/A 50 N/A N/A E15G21 N/A Brooklyn Coll N/A 54 54 100 E17 N/A Staten Island N/A 52 52 100 SE9 N/A Newark/Liberty LGT RAIN 56 55 97 SE9G18 29.85F FOG Teterboro CLOUDY 59 56 89 SE10G20 29.84F FOG $$ NYZ177-179-078>081-251600- Long Island New York CITY SKY/WX TMP DP RH WIND PRES REMARKS Jones Beach N/A 52 N/A N/A E15G23 N/A Wantagh N/A 55 54 94 E17G31 N/A Hempstead N/A 57 55 94 SE10 29.88F Matinecock Pt N/A 57 N/A N/A SE12G20 N/A Farmingdale LGT RAIN 56 55 97 E20G30 29.87F MacArthur/ISP LGT RAIN 56 56 100 SE18G25 29.88F FOG Stony Brook N/A 57 55 94 SE9 N/A Shirley LGT RAIN 54 54 100 E8G21 29.90F FOG Mt Sinai Harb N/A N/A N/A N/A SE9 N/A Westhampton LGT RAIN 51 50 96 E12G21 29.92F FOG East Hampton LGT RAIN 50 49 97 E14G23 29.93F Southold N/A 54 54 100 SE8 N/A Montauk N/A 53 51 93 SE12G24 29.96F $$ NYZ052-065-067-251600- Hudson Valley CITY SKY/WX TMP DP RH WIND PRES REMARKS White Plains LGT RAIN 54 53 97 E7 29.88F VSB 3/4 Larchmont Harb N/A 50 N/A N/A N16G22 N/A Croton On Huds N/A 54 N/A N/A CALM N/A Somers N/A 54 54 100 E10 N/A Brewster N/A 55 54 94 SE9 N/A Newburgh LGT RAIN 54 54 100 NE7 29.90F FOG Montgomery LGT RAIN 52 51 97 N10 29.88F FOG Otisville N/A 50 50 100 NE6 N/A Warwick N/A 57 57 100 E5 N/A Suffern N/A 55 54 94 E2 N/A Poughkeepsie LGT RAIN 55 53 93 N6 29.89F VSB 1 Albany LGT RAIN 52 49 89 N6 29.94F FOG $$ NJZ001-105-106-008-010-013-015-019>022-104-251600- New Jersey CITY SKY/WX TMP DP RH WIND PRES REMARKS Newark/Liberty LGT RAIN 56 55 97 SE9G18 29.85F FOG Teterboro CLOUDY 59 56 89 SE10G20 29.84F FOG Caldwell LGT RAIN 57 56 96 SE14G22 29.87F FOG Somerville CLOUDY 56 56 100 CALM 29.82F Linden DRIZZLE 53 52 97 SE6 29.85F Perth Amboy N/A 52 N/A N/A E12 N/A Sussex LGT RAIN 54 53 97 NE6 29.86F FOG Andover N/A 57 55 93 MISG 29.84F Trenton LGT RAIN 59 57 93 E8 29.80F FOG Millville CLOUDY 59 58 96 SE12 29.76F FOG Atlantic City FOG 60 60 100 SE15G25 29.77 VSB 3/4 Wrightstown CLOUDY 59 59 100 E9 29.78 Toms River CLOUDY 58 57 97 SE14 29.81F FOG Belmar LGT RAIN 53 52 96 E14 29.83F FOG $$ PAZ047>061-062-071-251600- Eastern Pennsylvania CITY SKY/WX TMP DP RH WIND PRES REMARKS Philadelphia LGT RAIN 59 58 96 E10 29.78F FOG Allentown CLOUDY 58 54 86 E9 29.82F FOG Scranton LGT RAIN 53 53 100 NE9 29.83F FOG $$ CTZ002-004>006-009-010-012-RIZ004-006-007-MAZ004-011-015-251600- Southern New England In CT CITY SKY/WX TMP DP RH WIND PRES REMARKS Bradley Intl DRIZZLE 53 53 100 N5 29.96F FOG Hartford CLOUDY 56 54 93 SE7 29.95F FOG Danbury LGT RAIN 55 54 96 E8 29.91F FOG Wtrbury/Oxford NOT AVBL Norwalk Harbor N/A 48 N/A N/A NE20 N/A Bridgeport LGT RAIN 50 48 93 E14 29.91F FOG Meriden LGT RAIN 55 53 93 E8 29.94F FOG New Haven LGT RAIN 54 52 93 E13 29.92F VSB 1 Chester LGT RAIN 54 54 100 SE8G16 29.95F VSB 3/4 Groton RAIN 50 50 100 E17 29.97F FOG Willimantic LGT RAIN 56 54 93 VRB6 29.98F FOG In RI CITY SKY/WX TMP DP RH WIND PRES REMARKS Providence LGT RAIN 55 54 96 SE10 30.02F FOG Block Island CLOUDY 50 50 100 SE17G29 29.98F FOG Westerly CLOUDY 51 51 100 E14G20 29.99F FOG In MA CITY SKY/WX TMP DP RH WIND PRES REMARKS Boston CLOUDY 51 50 96 E12 30.06F Worcester LGT RAIN 48 48 100 E7 30.01F VSB<1/4 Westfield LGT RAIN 50 50 100 N8 29.96 FOG Provincetown CLOUDY 56 51 84 SE13G22 30.08F Nantucket LGT RAIN 51 51 100 SE18 30.06F $$ ANZ330-335-338-340-345-350-353-355-251600- Coastal Marine Observations STATION/POSITION TIME SKY/WX TEMP WIND PRES VSBY WAVE AIR SEA DIR/SP/G HT/PER (UTC) (F) (DEG/KT/KT) (MB) (MI) (FT/S) NY Harb Entrance 1450 50 47 100/ 16/ 19 1010.3 7/10 20 S Fire Island 1450 49 44 110/ 14/ 16 1010.7 8/10 23 SSW Montauk P 1450 48 44 120/ 17/ 23 1013.3 7/ 9 15 E Barnegat Li 1430 46 N/A 9/10 Hudson Canyon 1450 53 45 110/ 16/ 17 1010.0 11/10 Kings Point 1430 58 46 180/ 15/ 22 1012.3 Execution Rocks NOT AVBL Western LI Sound NOT AVBL Central LI Sound 1430 48 70/ 10/ 12 N/A 1 Robbins Reef 1436 54 110/ 21/ 25 1011.4 $$ >>>>>>>>>>>>>>>>>>>>>>>>>>>> KEY <<<<<<<<<<<<<<<<<<<<<<<<<<< > < > SKY/WX - Sky Condition/Present Weather < > TMP - Temperature in Fahrenheit < > DP - Dew Point in Fahrenheit < > RH - Relative Humidity in Percent < > WIND - Direction (from) and Speed in MPH < > PRES - Mean Sea Level Pressure (inches of Hg) < > WCI - Wind Chill Index < > VSB - Visibility in Miles < > HX - Heat Index < > TC - Temperature in Celsius < > VRB - Varibale Wind Direction < > < >>>>>>>>>>>>>>>>>>>>>>>>>>>> KEY <<<<<<<<<<<<<<<<<<<<<<<<<<<

USA.gov is the U.S. government's official web portal to all federal, state and local government web resources and services.